Location: Gisborne
(38.6530°S, 178.0040°E)
Time: 23:52:22
(UTC+13:00)

COBE Rocket - Pass Details

Date: 24 January 2019
Orbit: 681 x 781 km, 97.1° (Epoch: 18 October)

Event Time Altitude Azimuth Distance (km) Brightness Sun altitude
Rises 20:44:36 0° 19° (NNE) 3,249 6.8 -3.4°
Reaches altitude 10° 20:46:54 10° 21° (NNE) 2,334 6.1 -3.8°
Maximum altitude 20:52:03 70° 104° (ESE) 840 4.1 -4.7°
Drops below altitude 10° 20:57:16 10° 186° (S) 2,362 7.1 -5.6°
Sets 20:59:37 0° 188° (S) 3,291 7.9 -6.0°
